GFSSE_prec_cthk_162.txt.gz
RH
49 41 41 39 39 45 43 41 38 38 40 38 36 37 36 36 35 34 34 34 34 33 31 30 31 30 30 31 31 31 30 28 29 32 37 39 38 39 41 49 47 51 46
47 44 42 42 45 46 42 40 43 43 41 37 38 38 38 38 39 39 40 40 41 41 40 37 34 33 34 34 34 33 32 31 32 33 35 38 40 39 44 47 53 68 57
47 42 41 46 48 46 42 45 48 46 40 40 39 37 38 40 42 43 46 47 47 48 49 49 49 43 42 42 41 39 36 35 33 35 37 44 51 49 43 47 56 63 62
46 44 44 49 50 49 47 50 53 46 43 41 38 38 38 40 44 46 46 47 48 48 49 52 49 49 48 49 49 44 41 38 37 36 40 49 53 46 47 50 52 61 63
50 48 51 53 57 54 52 55 52 46 43 40 39 38 38 40 41 42 43 44 44 43 43 44 44 47 49 49 48 46 44 44 41 40 45 49 50 50 47 51 53 53 58
52 54 58 60 61 58 60 58 49 44 38 35 35 35 36 37 38 36 35 35 35 37 39 41 42 42 42 42 43 44 45 44 44 48 52 50 44 49 47 51 54 56 60
53 55 57 61 62 60 60 49 40 36 35 33 34 34 35 35 33 27 26 26 28 29 29 31 32 34 38 41 41 42 44 43 41 47 51 48 48 47 49 50 54 56 59
51 53 56 58 59 60 49 40 35 34 33 33 33 34 34 31 25 20 20 20 20 20 21 22 24 27 30 34 37 39 41 42 42 49 51 49 49 46 50 51 54 55 54
50 54 59 61 60 51 41 36 34 32 32 32 32 32 29 21 19 17 16 16 16 16 17 18 19 20 22 24 27 30 36 41 43 48 52 54 51 43 46 52 55 57 56
55 57 53 52 50 42 37 34 33 32 31 30 31 26 18 16 16 16 15 15 15 15 15 15 15 14 14 14 15 18 25 33 41 47 58 58 52 47 46 47 51 54 56
54 52 51 48 41 38 36 33 31 30 29 27 20 16 15 15 15 15 14 14 13 13 12 12 12 12 13 13 14 14 15 19 22 34 43 48 54 52 45 47 49 51 52
52 50 45 40 37 35 35 32 29 27 22 17 15 15 15 14 13 12 11 11 10 10 9 9 9 9 10 10 11 12 14 14 15 17 23 32 43 48 49 48 50 49 50
53 51 43 36 34 33 30 28 24 17 15 15 15 15 13 13 13 12 11 11 10 10 9 9 9 9 10 10 10 10 11 11 13 16 19 18 21 33 49 52 53 51 48
54 47 39 32 31 28 27 21 17 16 16 17 16 15 16 16 15 14 14 14 13 13 12 12 11 11 10 10 10 10 10 10 10 11 12 14 16 19 24 43 54 55 53
53 41 32 29 27 25 19 17 18 18 19 19 19 19 19 19 19 18 17 17 15 14 13 14 13 13 12 12 12 11 10 10 10 10 10 10 11 14 19 20 30 49 57
46 36 30 25 23 18 17 19 21 23 21 22 22 23 23 22 22 21 19 18 16 15 17 16 16 15 15 15 15 15 14 14 13 12 11 11 10 10 12 18 21 25 44
37 34 28 21 17 17 20 24 25 24 24 24 25 25 25 25 24 23 21 18 16 17 16 16 16 18 19 19 19 18 18 17 16 15 13 12 11 10 9 10 15 21 23
32 31 22 18 18 19 24 27 26 26 27 28 28 27 27 26 25 23 20 18 17 17 17 15 15 17 19 20 21 22 21 20 20 19 18 18 17 15 12 9 9 13 21
31 24 20 19 20 23 27 26 27 28 29 29 29 28 28 27 25 23 20 18 17 16 14 15 16 19 21 24 24 24 24 23 24 23 24 24 24 21 18 15 10 9 13
29 24 23 22 25 28 28 27 30 31 32 31 30 30 30 29 26 23 20 18 16 15 16 16 18 20 25 28 26 27 25 27 28 29 32 30 32 29 29 21 17 13 9
28 25 25 28 31 30 29 31 34 34 34 32 33 31 32 29 26 23 20 18 16 18 17 18 19 21 22 28 30 30 31 34 39 39 36 40 46 44 37 35 27 18 14
30 28 29 34 33 32 33 35 36 36 35 35 34 34 33 30 27 23 20 18 17 18 17 18 18 19 22 30 33 35 36 40 47 47 52 53 56 56 48 41 39 30 24
35 32 33 35 34 33 33 36 39 40 39 38 37 37 35 32 27 23 19 16 16 18 16 15 17 18 19 26 38 43 46 49 54 61 58 61 62 63 62 52 43 40 33
38 35 35 36 34 34 35 39 44 45 43 43 41 38 36 32 28 23 18 16 15 15 14 16 16 14 22 31 41 52 56 64 65 61 64 62 69 74 75 71 54 52 48
42 39 37 36 35 36 40 44 50 48 48 47 43 39 36 31 26 21 17 15 14 13 14 14 12 13 25 29 34 49 65 71 72 70 66 66 69 79 79 81 70 60 55
44 42 39 39 38 40 46 51 56 54 52 48 44 42 34 29 25 21 17 15 14 13 14 14 11 14 17 19 31 49 67 74 74 73 70 70 74 83 86 89 80 73 64

GFSSE_prec_cthk_168.txt.gz
RH
45 38 29 28 27 27 30 35 39 34 36 37 36 34 33 34 34 33 34 34 34 35 35 37 37 38 35 33 32 32 32 32 29 28 29 31 35 38 40 39 38 44 53
41 31 29 28 28 29 32 38 40 38 39 37 38 37 36 36 36 37 38 38 39 38 40 40 40 41 42 42 41 40 38 38 36 33 31 32 37 46 44 42 41 43 53
39 31 28 28 30 31 35 40 42 42 40 39 41 41 39 38 39 39 41 41 42 42 42 42 43 44 44 44 43 44 44 43 41 37 35 38 40 48 49 44 42 45 48
40 34 30 30 32 33 40 42 45 45 42 41 42 43 40 40 41 41 41 40 37 37 36 34 34 36 36 37 37 38 39 42 42 39 38 47 62 60 54 51 44 45 48
41 35 30 30 34 37 42 47 50 48 43 42 42 40 38 37 37 38 38 36 31 32 31 32 33 35 35 36 35 35 36 38 39 40 37 40 52 60 63 56 54 48 49
41 36 33 33 37 40 47 52 55 51 44 41 37 35 33 33 33 36 36 31 26 26 25 25 25 27 27 29 30 32 34 36 37 38 39 42 53 51 43 45 48 49 52
40 38 35 35 40 46 52 55 56 52 41 36 34 32 31 30 31 32 29 24 19 19 18 18 18 19 20 20 21 23 24 27 31 36 39 40 46 54 51 41 39 42 50
41 41 38 40 44 51 55 55 53 45 37 33 31 29 28 28 28 27 21 18 17 15 15 14 14 14 14 15 15 16 17 18 21 23 29 37 44 47 56 61 51 42 44
43 40 41 45 49 52 54 51 47 41 33 30 29 28 27 27 27 21 16 15 15 15 13 12 12 12 11 11 11 11 12 12 13 15 22 32 41 43 50 57 59 50 41
45 46 48 51 51 50 49 47 45 36 31 29 28 26 26 27 23 17 14 13 12 11 10 10 10 10 9 9 8 8 8 9 11 14 21 32 34 42 51 52 60 61 51
46 48 50 50 51 51 51 49 41 33 29 28 28 26 25 22 18 14 12 12 12 11 12 12 11 10 10 10 10 9 9 9 9 11 17 23 26 27 34 44 54 60 60
47 47 50 51 54 54 51 44 36 30 28 27 26 25 23 17 13 11 12 12 13 14 14 13 13 13 13 13 13 13 13 12 12 11 11 13 15 19 21 25 30 39 48
46 46 50 55 58 52 46 39 33 30 27 25 25 24 18 12 11 12 14 16 18 18 17 17 17 16 16 15 15 14 14 14 13 13 13 12 14 15 15 17 21 23 33
48 50 54 57 55 49 43 38 34 29 26 25 24 20 13 12 13 16 19 21 21 20 20 19 18 16 15 15 15 14 14 14 14 14 13 13 12 12 12 12 12 15 19
51 52 56 58 53 49 44 41 34 29 26 25 21 13 13 14 18 21 22 22 22 21 21 19 17 15 15 14 14 13 13 13 14 14 14 13 13 13 12 11 10 9 9
53 53 57 57 52 49 46 42 34 28 26 22 14 13 15 20 22 23 24 24 23 22 21 19 18 16 17 16 14 14 13 14 15 16 17 18 17 17 18 18 17 15 13
52 52 56 56 53 49 47 39 33 29 23 16 14 14 19 24 25 26 25 24 24 23 22 20 19 18 17 15 14 13 13 15 15 17 18 20 22 23 24 23 22 20 18
53 52 56 55 53 50 45 37 33 29 19 15 15 17 23 25 27 27 26 25 25 25 23 22 20 18 17 15 13 12 13 14 15 17 21 24 26 29 30 25 24 24 24
50 51 56 56 53 48 43 34 31 24 17 17 17 20 24 27 28 28 27 27 28 27 25 22 20 18 15 13 12 11 11 12 15 19 25 29 31 27 27 25 26 25 24
46 47 55 55 54 48 41 33 28 19 18 19 20 23 27 29 30 30 31 32 31 28 25 22 19 16 16 13 12 10 10 13 17 20 23 30 29 31 32 31 31 31 29
45 47 52 54 52 46 41 35 25 21 22 22 24 27 30 35 36 35 35 36 33 30 26 22 18 16 17 14 11 10 10 15 17 24 26 27 29 33 34 36 40 40 39
46 46 51 51 50 45 41 35 26 24 24 26 28 33 34 36 35 35 37 38 35 30 26 22 19 17 16 14 12 13 14 14 19 20 28 32 37 40 41 44 50 52 55
44 44 49 50 49 47 43 36 28 27 26 29 32 36 36 35 34 36 40 40 35 30 25 22 19 16 14 14 16 17 20 22 18 17 26 36 43 47 49 54 63 65 64
43 46 54 53 49 49 44 34 28 27 28 34 38 38 36 35 35 41 45 40 35 28 25 22 19 18 16 12 12 16 22 23 24 23 24 38 52 56 61 64 68 71 70
48 50 58 56 53 50 43 34 29 31 34 36 37 36 36 36 41 48 45 39 33 29 25 21 21 19 14 12 10 15 20 23 29 32 27 37 60 61 71 69 72 75 71
49 54 58 58 56 52 45 37 34 35 37 37 36 38 38 41 50 52 44 38 33 28 24 22 20 17 14 13 10 16 20 25 30 35 36 43 60 65 75 74 75 77 77

GFSSE_prec_cthk_171.txt.gz
RH
40 33 24 25 26 25 24 27 30 34 36 31 33 33 31 31 30 30 31 31 32 33 34 36 37 38 40 37 35 34 32 32 32 31 31 33 37 38 41 42 42 41 42
38 35 28 24 25 25 25 28 33 35 38 32 33 34 35 33 32 32 34 35 36 36 37 39 39 40 41 40 39 40 40 38 37 36 34 36 41 49 57 46 43 44 48
45 35 31 24 24 25 28 30 34 37 41 33 33 35 36 36 34 34 35 37 37 37 37 36 35 36 36 38 39 39 40 40 40 38 36 43 46 49 61 58 48 47 50
46 33 28 25 24 26 30 32 36 41 42 35 34 35 36 35 34 34 35 36 34 32 30 29 30 31 31 31 32 33 35 35 38 38 37 45 50 64 61 59 56 53 51
39 31 28 26 24 26 31 35 39 44 45 38 35 35 36 34 33 32 33 32 26 24 24 24 25 25 25 26 27 29 29 32 34 38 36 39 41 45 56 57 54 50 52
37 32 31 28 27 29 34 38 43 47 47 41 36 34 32 30 29 29 30 29 23 19 19 18 18 17 18 18 19 20 23 25 28 33 36 37 42 50 57 52 48 43 44
38 34 33 32 30 32 38 43 49 52 48 41 33 32 30 28 28 29 28 24 20 16 15 14 14 14 14 14 14 15 16 17 18 22 30 36 39 42 50 58 56 49 41
38 34 34 33 32 36 43 49 53 52 45 36 32 30 28 27 27 27 25 21 16 16 14 14 13 12 12 11 11 11 12 12 11 12 17 23 37 41 48 52 57 58 50
40 35 36 35 35 40 46 53 54 47 41 35 31 28 26 26 26 26 22 17 14 13 12 11 10 10 10 9 8 8 8 9 10 11 13 16 23 33 39 49 48 60 64
43 41 38 38 41 45 50 51 48 42 40 35 30 27 26 26 25 23 20 14 11 11 11 11 11 11 10 10 9 9 8 8 8 8 12 18 20 24 29 37 48 54 62
46 44 42 44 46 50 51 49 48 44 39 32 28 26 26 25 23 20 14 12 12 12 12 13 14 13 13 13 13 13 13 13 12 12 13 16 19 22 21 25 33 42 54
44 45 45 48 53 52 51 48 46 43 37 31 27 25 25 24 21 16 12 12 12 13 15 17 17 18 18 17 16 15 14 14 14 14 13 13 16 20 20 19 20 25 32
41 43 43 49 52 51 51 51 48 40 34 31 28 25 24 22 18 13 14 14 15 17 19 20 20 19 18 17 15 14 13 13 13 13 13 13 12 12 13 13 14 16 19
41 44 44 50 52 51 55 52 44 39 34 30 27 26 23 20 15 13 15 16 18 21 22 22 21 20 19 17 16 14 13 13 13 13 13 13 13 13 13 13 12 12 12
43 45 44 48 51 54 54 47 45 40 37 32 27 25 22 18 13 14 16 19 21 22 23 22 21 19 18 17 16 14 13 13 13 14 14 14 14 15 17 20 22 21 17
48 45 45 52 52 52 51 51 48 44 39 35 29 24 20 14 13 15 20 22 23 25 24 23 21 20 19 18 18 16 15 15 15 15 16 17 19 20 21 20 19 18 19
51 48 49 58 55 54 52 51 49 47 43 36 31 24 18 13 14 18 23 25 27 27 26 24 23 22 21 19 18 16 14 13 14 17 19 21 20 22 22 22 22 22 21
45 49 54 58 58 55 54 53 50 49 44 38 30 25 15 14 16 21 26 28 28 28 27 25 26 25 22 19 17 15 13 13 15 16 18 18 20 22 22 22 22 24 24
45 49 52 57 61 61 57 52 49 47 43 35 29 22 15 16 19 23 26 28 28 29 29 29 29 27 23 19 17 14 12 13 14 16 18 20 21 22 23 24 26 25 25
51 53 57 57 56 57 58 53 48 46 41 36 27 18 17 18 22 25 28 30 32 33 32 30 29 26 23 19 17 14 14 14 16 18 19 21 23 25 26 27 26 27 28
49 52 54 58 59 56 55 53 49 46 42 38 27 19 19 21 25 29 32 31 34 33 32 30 29 26 22 19 16 14 14 14 16 15 16 20 23 24 25 27 29 35 37
43 45 52 55 61 58 59 55 50 46 44 41 28 21 22 25 29 33 35 34 35 34 32 31 31 26 22 20 17 15 13 13 13 14 14 18 20 20 24 31 39 44 47
49 44 45 49 56 62 58 52 48 48 46 42 28 24 26 28 33 36 37 36 36 33 34 34 31 26 22 18 16 15 16 15 12 11 14 19 20 23 32 40 48 55 58
51 53 47 46 49 59 55 50 50 50 49 41 29 27 28 30 35 38 39 36 38 38 38 35 29 25 22 18 15 13 14 16 17 16 17 21 24 32 40 50 57 65 69
51 55 53 50 54 54 52 53 55 54 51 41 33 30 30 33 36 39 39 43 45 41 39 33 28 24 19 16 13 10 10 13 18 21 23 26 30 37 47 59 71 73 75
56 59 59 56 60 61 53 58 58 55 51 44 38 34 36 39 40 42 46 48 45 43 37 31 26 21 18 15 11 9 11 15 20 23 29 34 39 40 49 68 76 79 79

GFSSE_prec_cthk_174.txt.gz
RH
36 35 22 20 21 22 23 23 25 28 33 34 28 30 31 31 30 29 29 30 30 31 32 33 34 35 37 37 37 36 35 36 34 33 35 36 40 41 47 44 43 51 45
41 34 25 22 21 22 24 24 27 30 36 35 31 30 31 33 33 31 31 33 33 34 35 36 38 40 42 43 42 41 41 40 40 38 36 39 44 51 56 54 47 47 52
47 44 35 25 23 24 25 26 29 33 38 37 33 31 32 33 34 31 32 33 34 33 33 34 33 34 35 36 37 39 40 40 38 38 38 43 45 46 57 61 54 52 53
53 51 41 29 26 25 25 26 31 36 40 39 35 33 32 33 33 31 31 32 33 28 27 26 26 27 28 29 30 31 33 36 39 37 35 43 42 47 56 57 64 58 51
52 49 41 31 27 25 24 27 33 38 43 41 38 35 33 33 32 29 29 30 30 24 21 20 20 20 20 20 21 22 24 27 31 36 37 35 40 39 45 56 56 52 48
44 44 38 31 29 26 25 28 35 40 46 44 41 37 33 32 29 27 27 28 27 22 18 17 16 14 14 14 15 15 16 17 20 27 35 37 36 38 46 60 57 55 49
41 36 32 31 30 28 26 31 36 42 48 48 41 35 31 30 27 25 26 26 23 20 16 15 13 13 13 12 12 13 13 13 14 16 18 29 34 34 38 49 55 61 56
41 36 35 33 32 31 28 34 39 46 51 47 38 33 30 29 27 26 25 24 21 17 15 14 13 12 11 10 10 10 10 11 11 11 12 16 24 29 33 43 50 53 59
43 38 39 35 33 32 32 38 44 50 51 42 35 33 30 28 27 26 24 21 19 14 12 13 12 11 11 11 10 9 8 8 8 9 10 13 16 25 30 35 41 47 52
45 45 43 39 35 34 36 41 47 49 44 38 35 33 30 27 26 25 23 19 15 12 12 12 12 12 12 12 11 10 10 10 9 8 9 10 16 17 20 27 34 40 44
50 46 46 45 40 40 43 44 46 46 43 40 37 33 29 27 26 24 22 16 13 13 13 12 13 14 15 15 16 16 16 15 14 13 13 13 15 19 21 22 24 31 37
52 48 45 46 44 44 46 47 47 44 43 41 37 32 30 28 26 23 20 16 13 13 12 14 16 19 20 19 18 16 15 15 15 14 14 14 13 13 16 20 22 22 24
49 50 47 45 46 48 50 50 48 45 44 41 35 32 30 28 26 21 19 17 14 14 15 18 21 22 22 20 18 17 16 15 15 14 14 14 14 14 13 13 13 13 14
52 49 51 48 49 53 55 53 50 49 47 41 35 33 31 28 24 21 19 16 14 16 18 21 23 23 22 20 19 18 17 16 15 14 14 14 15 15 15 15 15 15 14
51 54 52 49 48 50 52 51 49 54 48 41 38 35 33 29 23 21 18 14 15 17 21 24 26 26 23 21 20 19 18 17 16 15 15 14 13 12 12 13 15 15 15
48 48 54 52 52 52 51 48 51 50 46 42 41 39 36 31 24 20 17 14 15 19 24 27 29 28 24 23 21 20 18 17 16 15 13 13 13 13 13 14 15 15 15
48 45 45 55 56 54 52 52 53 54 47 44 42 40 39 34 27 21 15 15 16 22 27 30 31 30 27 24 23 22 20 18 17 16 16 16 17 17 17 17 17 16 15
48 45 44 47 54 56 56 59 61 58 51 48 44 42 39 34 27 22 15 16 18 23 28 31 32 30 27 25 24 23 21 19 19 19 20 20 21 20 19 19 19 19 19
46 43 42 41 47 56 61 62 66 62 58 50 47 45 40 34 26 19 17 17 20 25 29 32 33 31 29 26 24 25 22 21 21 20 19 20 20 18 17 17 18 18 18
48 47 47 46 49 56 59 63 65 61 59 53 49 46 42 37 28 19 18 19 23 27 32 33 35 33 29 26 25 26 24 22 20 17 18 17 17 17 17 17 17 19 23
50 49 48 51 52 58 60 61 63 63 60 56 51 47 45 39 31 23 20 22 26 30 34 35 34 32 28 27 27 27 24 22 20 18 17 16 16 16 17 20 22 24 26
47 50 51 50 51 55 59 62 64 63 61 57 53 50 47 42 34 27 23 25 29 32 35 38 37 33 29 28 29 26 23 22 20 16 16 17 16 18 20 23 25 29 34
50 53 57 57 55 52 58 61 64 61 59 56 54 52 48 44 38 31 26 28 31 35 40 41 36 33 32 31 27 23 20 16 14 14 16 17 18 19 23 25 29 36 40
51 59 61 63 63 61 60 58 57 58 57 57 55 52 50 45 37 31 29 31 32 36 42 42 37 37 34 29 24 20 17 16 14 12 16 18 18 22 26 30 36 42 47
52 54 61 68 68 69 67 62 59 54 54 56 53 52 52 48 39 35 34 34 36 42 44 44 43 38 33 27 23 19 16 14 15 18 18 18 21 27 31 36 43 50 57
52 55 63 71 73 75 76 73 64 62 56 55 56 56 54 48 41 38 38 39 44 46 48 46 45 38 32 27 22 17 14 13 15 20 20 24 24 28 37 43 49 58 68